STARLINK-33798, 63449

Orbit data source: Space-Track

STARLINK-33798, 63449 is a payload satellite owned by SpaceX/Seattle (US) in LEO that was launched on Fri, 04 Apr 2025 UTC via an FALCON 9 launch vehicle from the Air Force Western Test Range (AFWTR). Payload-class satellites include a variety of spacecraft equipped with specific instruments for various scientific and technological missions. These include communications satellites like Starlink; space stations such as the ISS; scientific satellites like the Hubble; Earth observation satellites from companies like Planet Labs, Umbra, and HawkEye 360; GPS; miniature CubeSats for education and research; and military/defense satellites.

Loading next visibility...
Identifier
63449, 2025-069S
Orbit
LEO
Country
Flag of USUS
Related business
Manufacturer
SpaceX/Seattle
Mission
Operational Commercial Communications
Bus & Motor
STARLINK V2MO, Unknown motor
Mass
575 kg wet, ~530 kg dry
Launch date (UTC)
2025-04-04 (8 months ago)
Launch vehicle
FALCON 9
Launch site
Air Force Western Test Range (AFWTR)
Object type
Payload
Rocket body
Debris
Shape & HBR
Box + 2 Pan, 17.7 m
Radar Cross Section
36.964 m², Large (>1 m²)

Expand to show TLE details & history
Last TLE update: 16 hours ago

TLE from 16 hours ago
0 STARLINK-33798
1 63449U 25069S   25348.93246343  .00018729  00000-0  64290-3 0  9995
2 63449  53.1582 176.4630 0001356  86.8468 273.2688 15.30198642 40159
Epoch: 2025-12-14T22:22Z
TLE epoch observation values (Epoch: 2025-12-14T22:22:44.840Z)
Latitude
-0°
Longitude
116.93788°
Altitude
476.066 km
Speed
7.629 km/s
True Right ascension
11h 45m 51s
True Declination
0° 00' 00"
Sunlit
Object was in daylight at epoch
Visualization orbit readout
Latitude
Unknown
Longitude
Unknown
Altitude
Unknown
Speed
Unknown
Apparent Right ascension
Unknown
Apparent Declination
Unknown
Sunlit
N/A
Visualization observer readout
Local Sidereal Time
13:18:59
Azimuth
Unknown
Elevation
Unknown
Doppler factor
Unknown
Orbital elements
Apogee altitude
476.405 km
Perigee altitude
474.546 km
Semi-major axis
6,853.613 km
Eccentricity
0.00014
Inclination
53.1582°
RAAN
176.463°
Arg. of periapsis
86.8468°
True anomaly
273.25329°
Mean anomaly
273.2688°
Eccentric anomaly
273.26104°
Mean motion
3.82529 °/min
Orbital period
94.11 mins
BSTAR
0.0006429
Loading maneuver chart data...
Computing Atmospheric mass density...
Loading historical data...
Loading historical data...
Loading historical data...
Loading historical data...
Loading historical data...
Loading historical data...
Loading historical data...

Documentation

Showing up to 5 results
|